Location: Corralito
(10.2667°N, 66.9500°W)
Time: 08:37:12
(UTC+00:00)

GPS 2-15 Rocket1 - Pass Details

Date: 10 December 2023
Orbit: 617 x 666 km, 19.8° (Epoch: 02 March)

Event Time Altitude Azimuth Distance (km) Brightness Sun altitude
Rises 22:39:05 0° 227° (SW) 2,968 8.1 -8.2°
Reaches altitude 10° 22:41:50 10° 214° (SW) 2,049 6.7 -8.8°
Maximum altitude 22:45:47 25° 159° (SSE) 1,301 4.7 -9.7°
Drops below altitude 10° 22:49:40 10° 104° (ESE) 2,022 5.2 -10.6°
Enters shadow 22:49:55 - 102° (ESE) 2,096 5.3 -10.6°
